IBE212 RJCC-RJGG

Flight info

Callsign IBE212
Flight time N/A
Altitude 38000
Route DALBI Y120 TAPPI Y12 MBE Y121 SWING
Aircraft A346/H-SDE2E3FGHIJ3J4J5M1RWXY/LB1D1

Departure

Time 2026-05-07 16:38
Airport New Chitose Airport (RJCC)

Arrival

Time N/A
Airport Chubu Centrair International Airport (RJGG)
Time Latitude Longitude Altitude Speed Heading
2026-05-07 16:20 42.79055 141.67823 76 ft 0 kts 172°
2026-05-07 16:23 42.79057 141.67822 67 ft 2 kts 173°
2026-05-07 16:23 42.79079 141.67819 68 ft 3 kts 176°
2026-05-07 16:24 42.79103 141.67818 68 ft 3 kts 176°
2026-05-07 16:24 42.79124 141.67814 67 ft 3 kts 162°
2026-05-07 16:24 42.79136 141.67807 65 ft 3 kts 126°
2026-05-07 16:24 42.79135 141.67815 65 ft 1 kts 91°
2026-05-07 16:27 42.79135 141.67827 65 ft 3 kts 91°
2026-05-07 16:28 42.79134 141.67870 68 ft 6 kts 91°
2026-05-07 16:28 42.79133 141.67945 73 ft 9 kts 94°
2026-05-07 16:28 42.79113 141.68046 72 ft 13 kts 109°
2026-05-07 16:28 42.79070 141.68166 71 ft 16 kts 122°
2026-05-07 16:29 42.78991 141.68289 68 ft 18 kts 140°
2026-05-07 16:29 42.78900 141.68365 70 ft 16 kts 155°
2026-05-07 16:29 42.78783 141.68410 70 ft 19 kts 171°
2026-05-07 16:29 42.78640 141.68434 70 ft 22 kts 173°
2026-05-07 16:30 42.78478 141.68465 69 ft 25 kts 172°
2026-05-07 16:30 42.78300 141.68496 71 ft 27 kts 172°
2026-05-07 16:30 42.78107 141.68530 70 ft 29 kts 172°
2026-05-07 16:30 42.77904 141.68566 69 ft 30 kts 172°
2026-05-07 16:31 42.77691 141.68604 68 ft 32 kts 172°
2026-05-07 16:31 42.77534 141.68706 71 ft 18 kts 122°
2026-05-07 16:31 42.77442 141.68814 66 ft 17 kts 154°
2026-05-07 16:31 42.77332 141.68854 67 ft 18 kts 171°
2026-05-07 16:32 42.77202 141.68879 69 ft 21 kts 173°
2026-05-07 16:32 42.77050 141.68904 71 ft 23 kts 173°
2026-05-07 16:32 42.76877 141.68932 72 ft 26 kts 173°
2026-05-07 16:32 42.76691 141.68963 70 ft 28 kts 173°
2026-05-07 16:33 42.76491 141.68998 71 ft 30 kts 172°
2026-05-07 16:33 42.76283 141.69033 71 ft 28 kts 172°
2026-05-07 16:33 42.76173 141.69120 67 ft 11 kts 92°
2026-05-07 16:33 42.76173 141.69143 69 ft 0 kts 90°
2026-05-07 16:36 42.76173 141.69149 69 ft 2 kts 90°
2026-05-07 16:36 42.76173 141.69180 69 ft 5 kts 89°
2026-05-07 16:36 42.76188 141.69227 71 ft 7 kts 39°
2026-05-07 16:36 42.76240 141.69257 71 ft 10 kts 10°
2026-05-07 16:37 42.76259 141.69259 69 ft 0 kts 358°
2026-05-07 16:37 42.76462 141.69229 69 ft 68 kts 352°
2026-05-07 16:37 42.77168 141.69105 72 ft 135 kts 352°
2026-05-07 16:37 42.78289 141.68907 123 ft 185 kts 353°
2026-05-07 16:38 42.79587 141.68696 831 ft 189 kts 357°
2026-05-07 16:38 42.80876 141.68971 1715 ft 190 kts 24°
2026-05-07 16:38 42.81950 141.70019 2487 ft 193 kts 44°
2026-05-07 16:38 42.82852 141.71407 3131 ft 199 kts 51°
2026-05-07 16:39 42.83716 141.72942 3673 ft 210 kts 52°
2026-05-07 16:39 42.84551 141.74637 4219 ft 223 kts 63°
2026-05-07 16:39 42.84894 141.76744 4654 ft 242 kts 92°
2026-05-07 16:39 42.84455 141.79029 5081 ft 259 kts 123°
2026-05-07 16:40 42.83259 141.80894 5647 ft 266 kts 150°
2026-05-07 16:40 42.81576 141.81915 6328 ft 267 kts 175°
2026-05-07 16:40 42.79733 141.81894 7009 ft 266 kts 199°
2026-05-07 16:40 42.78076 141.80836 7820 ft 264 kts 221°
2026-05-07 16:41 42.76809 141.79053 8810 ft 262 kts 235°
2026-05-07 16:41 42.75672 141.77123 9890 ft 262 kts 227°
2026-05-07 16:41 42.74250 141.75540 10842 ft 267 kts 220°
2026-05-07 16:41 42.72771 141.73924 11585 ft 277 kts 223°
2026-05-07 16:42 42.71311 141.72150 12391 ft 285 kts 225°
2026-05-07 16:42 42.69773 141.70384 13197 ft 296 kts 218°
2026-05-07 16:42 42.68001 141.68803 13752 ft 314 kts 215°
2026-05-07 16:42 42.66094 141.67147 13973 ft 339 kts 216°
2026-05-07 16:43 42.64076 141.65333 13889 ft 352 kts 217°
2026-05-07 16:43 42.62034 141.63437 13874 ft 358 kts 217°
2026-05-07 16:43 42.59954 141.61467 14291 ft 368 kts 218°
2026-05-07 16:43 42.57872 141.59484 15409 ft 362 kts 218°
2026-05-07 16:44 42.55822 141.57525 16501 ft 359 kts 219°
2026-05-07 16:44 42.53803 141.55585 17381 ft 361 kts 219°
2026-05-07 16:44 42.51754 141.53601 18256 ft 362 kts 221°
2026-05-07 16:44 42.49862 141.51341 18981 ft 362 kts 228°
2026-05-07 16:45 42.48216 141.48754 19685 ft 363 kts 234°
2026-05-07 16:45 42.46828 141.45879 20326 ft 366 kts 240°
2026-05-07 16:45 42.45572 141.42844 20989 ft 369 kts 241°
2026-05-07 16:45 42.44321 141.39791 21699 ft 372 kts 241°
2026-05-07 16:46 42.43062 141.36704 22417 ft 375 kts 241°
2026-05-07 16:46 42.41796 141.33592 23102 ft 379 kts 241°
2026-05-07 16:46 42.40535 141.30489 23700 ft 382 kts 241°
2026-05-07 16:46 42.39248 141.27323 24260 ft 385 kts 241°
2026-05-07 16:47 42.37955 141.24144 24882 ft 386 kts 241°
2026-05-07 16:47 42.36657 141.20953 25488 ft 388 kts 240°
2026-05-07 16:47 42.35353 141.17747 26069 ft 390 kts 240°
2026-05-07 16:47 42.34039 141.14527 26642 ft 392 kts 240°
2026-05-07 16:48 42.32715 141.11283 27218 ft 394 kts 240°
2026-05-07 16:48 42.31386 141.08033 27786 ft 396 kts 240°
2026-05-07 16:48 42.30047 141.04759 28332 ft 398 kts 240°
2026-05-07 16:48 42.28702 141.01474 28962 ft 399 kts 240°
2026-05-07 16:49 42.27361 140.98202 29801 ft 395 kts 240°
2026-05-07 16:49 42.26039 140.94980 30576 ft 389 kts 240°
2026-05-07 16:49 42.24730 140.91787 31282 ft 387 kts 240°
2026-05-07 16:49 42.23422 140.88607 31906 ft 385 kts 240°
2026-05-07 16:50 42.22122 140.85453 32541 ft 383 kts 240°
2026-05-07 16:50 42.20828 140.82315 33213 ft 381 kts 240°
2026-05-07 16:50 42.19544 140.79201 33879 ft 378 kts 240°
2026-05-07 16:50 42.18267 140.76108 34444 ft 376 kts 240°
2026-05-07 16:51 42.17013 140.73077 34985 ft 373 kts 239°
2026-05-07 16:51 42.15749 140.70023 35526 ft 371 kts 239°
2026-05-07 16:51 42.14490 140.66986 36032 ft 369 kts 239°
2026-05-07 16:51 42.13233 140.63969 36464 ft 369 kts 238°
2026-05-07 16:52 42.11810 140.61085 36852 ft 368 kts 233°
2026-05-07 16:52 42.10183 140.58403 37245 ft 369 kts 229°
2026-05-07 16:52 42.08367 140.55929 37580 ft 371 kts 225°
2026-05-07 16:52 42.06408 140.53719 37837 ft 374 kts 220°
2026-05-07 16:53 42.04261 140.51729 37818 ft 377 kts 216°
2026-05-07 16:53 41.99513 140.48601 37826 ft 385 kts 207°
2026-05-07 16:54 41.94352 140.46469 37841 ft 389 kts 204°
2026-05-07 16:54 41.89136 140.44457 37841 ft 390 kts 203°
2026-05-07 16:55 41.83907 140.42480 37844 ft 390 kts 203°
2026-05-07 16:55 41.78678 140.40521 37839 ft 390 kts 203°
2026-05-07 16:56 41.73433 140.38564 37839 ft 391 kts 203°
2026-05-07 16:56 41.65568 140.35640 37839 ft 391 kts 203°
2026-05-07 16:57 41.60350 140.33704 37817 ft 392 kts 203°
2026-05-07 16:57 41.55092 140.31760 37826 ft 392 kts 202°
2026-05-07 16:58 41.49827 140.29822 37837 ft 393 kts 202°
2026-05-07 16:58 41.44548 140.27878 37847 ft 394 kts 202°
2026-05-07 16:59 41.39265 140.25938 37845 ft 394 kts 202°
2026-05-07 16:59 41.33977 140.23997 37810 ft 394 kts 202°
2026-05-07 17:00 41.28701 140.22064 37841 ft 395 kts 202°
2026-05-07 17:00 41.23392 140.20126 37849 ft 395 kts 202°
2026-05-07 17:01 41.18078 140.18187 37843 ft 396 kts 202°
2026-05-07 17:01 41.12758 140.16255 37842 ft 396 kts 202°
2026-05-07 17:02 41.07412 140.14394 37823 ft 398 kts 201°
2026-05-07 17:02 41.02078 140.12554 37837 ft 398 kts 201°
2026-05-07 17:03 40.96722 140.10707 37840 ft 398 kts 201°
2026-05-07 17:03 40.91344 140.08854 37846 ft 398 kts 201°
2026-05-07 17:04 40.85983 140.07009 37842 ft 398 kts 201°
2026-05-07 17:04 40.80597 140.05151 37831 ft 401 kts 201°
2026-05-07 17:05 40.75229 140.03309 37837 ft 401 kts 201°
2026-05-07 17:05 40.69816 140.01457 37850 ft 402 kts 201°
2026-05-07 17:06 40.64399 139.99604 37850 ft 402 kts 201°
2026-05-07 17:06 40.58981 139.97751 37816 ft 403 kts 201°
2026-05-07 17:07 40.54458 139.96206 37842 ft 404 kts 201°
2026-05-07 17:07 40.49006 139.94352 37849 ft 404 kts 201°
2026-05-07 17:08 40.43552 139.92498 37856 ft 405 kts 201°
2026-05-07 17:08 40.38117 139.90656 37859 ft 405 kts 201°
2026-05-07 17:09 40.32650 139.88804 37843 ft 407 kts 201°
2026-05-07 17:09 40.27140 139.86943 37854 ft 408 kts 201°
2026-05-07 17:10 40.21636 139.85088 37857 ft 408 kts 201°
2026-05-07 17:10 40.16130 139.83234 37864 ft 408 kts 201°
2026-05-07 17:11 40.10620 139.81381 37841 ft 409 kts 201°
2026-05-07 17:11 40.05123 139.79535 37861 ft 411 kts 201°
2026-05-07 17:12 39.99574 139.77677 37867 ft 411 kts 201°
2026-05-07 17:12 39.94021 139.75821 37862 ft 411 kts 200°
2026-05-07 17:13 39.88474 139.73970 37857 ft 411 kts 200°
2026-05-07 17:13 39.82902 139.72111 37854 ft 415 kts 200°
2026-05-07 17:14 39.77335 139.70260 37861 ft 415 kts 200°
2026-05-07 17:14 39.71732 139.68401 37869 ft 415 kts 200°
2026-05-07 17:15 39.66123 139.66544 37880 ft 415 kts 201°
2026-05-07 17:15 39.60519 139.64687 37861 ft 416 kts 200°
2026-05-07 17:16 39.54897 139.62828 37866 ft 417 kts 200°
2026-05-07 17:16 39.49269 139.60973 37864 ft 417 kts 200°
2026-05-07 17:17 39.43664 139.59129 37863 ft 418 kts 200°
2026-05-07 17:17 39.38027 139.57276 37864 ft 418 kts 200°
2026-05-07 17:18 39.32389 139.55426 37865 ft 418 kts 200°
2026-05-07 17:18 39.26750 139.53578 37865 ft 418 kts 200°
2026-05-07 17:19 39.21109 139.51733 37866 ft 418 kts 200°
2026-05-07 17:19 39.15464 139.49887 37844 ft 419 kts 200°
2026-05-07 17:20 39.09816 139.48045 37860 ft 421 kts 200°
2026-05-07 17:20 39.04138 139.46201 37867 ft 420 kts 200°
2026-05-07 17:21 38.98468 139.44359 37866 ft 420 kts 200°
2026-05-07 17:21 38.92798 139.42518 37837 ft 421 kts 200°
2026-05-07 17:22 38.87097 139.40670 37860 ft 423 kts 200°
2026-05-07 17:22 38.81382 139.38823 37866 ft 424 kts 200°
2026-05-07 17:23 38.75662 139.36978 37867 ft 424 kts 200°
2026-05-07 17:23 38.69936 139.35132 37848 ft 424 kts 200°
2026-05-07 17:24 38.64197 139.33285 37868 ft 426 kts 200°
2026-05-07 17:24 38.58485 139.31451 37873 ft 426 kts 200°
2026-05-07 17:25 38.52730 139.29607 37875 ft 426 kts 200°
2026-05-07 17:25 38.46983 139.27767 37853 ft 426 kts 200°
2026-05-07 17:26 38.41214 139.25921 37871 ft 428 kts 200°
2026-05-07 17:26 38.35438 139.24080 37871 ft 428 kts 200°
2026-05-07 17:27 38.29657 139.22239 37869 ft 428 kts 200°
2026-05-07 17:27 38.23866 139.20396 37861 ft 429 kts 200°
2026-05-07 17:28 38.18069 139.18555 37871 ft 430 kts 200°
2026-05-07 17:28 38.12270 139.16718 37873 ft 430 kts 200°
2026-05-07 17:29 38.06459 139.14879 37876 ft 430 kts 200°
2026-05-07 17:29 38.00660 139.12951 37866 ft 429 kts 202°
2026-05-07 17:30 37.95085 139.10463 37874 ft 426 kts 207°
2026-05-07 17:30 37.89715 139.07325 37876 ft 424 kts 212°
2026-05-07 17:31 37.84504 139.03794 37877 ft 424 kts 212°
2026-05-07 17:31 37.79294 139.00275 37877 ft 424 kts 212°
2026-05-07 17:32 37.74086 138.96753 37879 ft 426 kts 212°
2026-05-07 17:32 37.68856 138.93220 37883 ft 426 kts 212°
2026-05-07 17:33 37.63655 138.89709 37885 ft 426 kts 212°
2026-05-07 17:33 37.58414 138.86177 37893 ft 427 kts 212°
2026-05-07 17:34 37.53162 138.82641 37892 ft 427 kts 212°
2026-05-07 17:34 37.47910 138.79109 37892 ft 428 kts 212°
2026-05-07 17:35 37.42654 138.75584 37894 ft 428 kts 212°
2026-05-07 17:35 37.37422 138.72080 37892 ft 428 kts 212°
2026-05-07 17:36 37.32158 138.68560 37900 ft 428 kts 212°
2026-05-07 17:36 37.26889 138.65042 37898 ft 429 kts 212°
2026-05-07 17:37 37.21606 138.61518 37905 ft 429 kts 212°
2026-05-07 17:37 37.16324 138.58004 37906 ft 429 kts 212°
2026-05-07 17:38 37.11070 138.54514 37916 ft 430 kts 212°
2026-05-07 17:38 37.05746 138.50980 37912 ft 431 kts 212°
2026-05-07 17:39 37.00445 138.47469 37918 ft 431 kts 212°
2026-05-07 17:39 36.95140 138.43961 37768 ft 432 kts 212°
2026-05-07 17:40 36.92484 138.42206 37492 ft 431 kts 212°
2026-05-07 17:40 36.89841 138.40462 37226 ft 429 kts 212°
2026-05-07 17:40 36.87203 138.38722 36966 ft 427 kts 212°
2026-05-07 17:40 36.84584 138.36996 36706 ft 425 kts 212°
2026-05-07 17:41 36.81965 138.35272 36442 ft 426 kts 212°
2026-05-07 17:41 36.79343 138.33543 36193 ft 427 kts 212°
2026-05-07 17:41 36.76890 138.31927 35948 ft 427 kts 212°
2026-05-07 17:41 36.74253 138.30189 35704 ft 429 kts 211°
2026-05-07 17:42 36.71611 138.28449 35458 ft 430 kts 211°
2026-05-07 17:42 36.68958 138.26707 35213 ft 431 kts 211°
2026-05-07 17:42 36.66300 138.24964 34974 ft 432 kts 211°
2026-05-07 17:42 36.63635 138.23217 34737 ft 433 kts 211°
2026-05-07 17:43 36.60962 138.21467 34503 ft 434 kts 211°
2026-05-07 17:43 36.58283 138.19713 34266 ft 435 kts 211°
2026-05-07 17:43 36.55597 138.17955 34036 ft 436 kts 211°
2026-05-07 17:43 36.52906 138.16196 33787 ft 437 kts 211°
2026-05-07 17:44 36.50207 138.14434 33522 ft 438 kts 211°
2026-05-07 17:44 36.47504 138.12667 33217 ft 440 kts 211°
2026-05-07 17:44 36.44785 138.10892 32974 ft 442 kts 211°
2026-05-07 17:44 36.42064 138.09121 32720 ft 443 kts 211°
2026-05-07 17:45 36.39364 138.07367 32467 ft 444 kts 211°
2026-05-07 17:45 36.36621 138.05586 32220 ft 445 kts 211°
2026-05-07 17:45 36.33877 138.03806 31968 ft 445 kts 211°
2026-05-07 17:45 36.31121 138.02018 31723 ft 446 kts 211°
2026-05-07 17:46 36.28362 138.00230 31462 ft 448 kts 211°
2026-05-07 17:46 36.25591 137.98435 31220 ft 450 kts 211°
2026-05-07 17:46 36.22805 137.96633 30978 ft 452 kts 211°
2026-05-07 17:46 36.20012 137.94828 30739 ft 453 kts 210°
2026-05-07 17:47 36.17236 137.92975 30504 ft 453 kts 212°
2026-05-07 17:47 36.14540 137.90955 30270 ft 453 kts 215°
2026-05-07 17:47 36.11928 137.88763 30037 ft 453 kts 217°
2026-05-07 17:47 36.09350 137.86521 29782 ft 453 kts 217°
2026-05-07 17:48 36.06796 137.84303 29517 ft 454 kts 217°
2026-05-07 17:48 36.04214 137.82060 29247 ft 454 kts 217°
2026-05-07 17:48 36.01627 137.79811 28966 ft 455 kts 217°
2026-05-07 17:48 35.99035 137.77562 28700 ft 455 kts 217°
2026-05-07 17:49 35.96438 137.75309 28441 ft 455 kts 217°
2026-05-07 17:49 35.93843 137.73060 28158 ft 454 kts 217°
2026-05-07 17:49 35.91260 137.70825 27889 ft 452 kts 217°
2026-05-07 17:49 35.88684 137.68595 27646 ft 450 kts 217°
2026-05-07 17:50 35.86118 137.66376 27385 ft 448 kts 217°
2026-05-07 17:50 35.83564 137.64171 27127 ft 446 kts 218°
2026-05-07 17:50 35.81028 137.61979 26880 ft 445 kts 217°
2026-05-07 17:50 35.78530 137.59825 26648 ft 443 kts 218°
2026-05-07 17:51 35.76010 137.57655 26398 ft 440 kts 218°
2026-05-07 17:51 35.73501 137.55495 26095 ft 438 kts 218°
2026-05-07 17:51 35.71011 137.53353 25725 ft 435 kts 218°
2026-05-07 17:51 35.68540 137.51225 25296 ft 431 kts 218°
2026-05-07 17:52 35.66095 137.49118 24834 ft 427 kts 218°
2026-05-07 17:52 35.63668 137.47026 24361 ft 423 kts 218°
2026-05-07 17:52 35.61266 137.44957 23881 ft 420 kts 218°
2026-05-07 17:52 35.58881 137.42907 23395 ft 416 kts 218°
2026-05-07 17:53 35.56520 137.40877 22858 ft 412 kts 218°
2026-05-07 17:53 35.54184 137.38870 22360 ft 406 kts 218°
2026-05-07 17:53 35.51880 137.36893 21877 ft 401 kts 218°
2026-05-07 17:53 35.49607 137.34943 21396 ft 396 kts 218°
2026-05-07 17:54 35.47362 137.33020 20956 ft 391 kts 218°
2026-05-07 17:54 35.45149 137.31124 20502 ft 386 kts 218°
2026-05-07 17:54 35.42956 137.29247 20048 ft 382 kts 218°
2026-05-07 17:54 35.41517 137.28017 19748 ft 379 kts 218°
2026-05-07 17:55 35.38667 137.25581 19164 ft 374 kts 218°
2026-05-07 17:55 35.36542 137.23751 18717 ft 371 kts 218°
2026-05-07 17:55 35.34444 137.21939 18251 ft 368 kts 218°
2026-05-07 17:55 35.32355 137.20137 17738 ft 365 kts 218°
2026-05-07 17:56 35.30982 137.18954 17438 ft 362 kts 218°
2026-05-07 17:56 35.28927 137.17184 16964 ft 359 kts 218°
2026-05-07 17:56 35.26892 137.15433 16503 ft 356 kts 218°
2026-05-07 17:56 35.24875 137.13699 16042 ft 353 kts 218°
2026-05-07 17:57 35.22853 137.11961 15586 ft 350 kts 218°
2026-05-07 17:57 35.20864 137.10253 15133 ft 348 kts 218°
2026-05-07 17:57 35.18879 137.08550 14690 ft 347 kts 217°
2026-05-07 17:57 35.16915 137.06865 14239 ft 345 kts 217°
2026-05-07 17:58 35.14951 137.05181 13794 ft 344 kts 217°
2026-05-07 17:58 35.12989 137.03500 13302 ft 342 kts 217°
2026-05-07 17:58 35.11064 137.01853 12829 ft 340 kts 217°
2026-05-07 17:58 35.09106 137.00178 12370 ft 338 kts 217°
2026-05-07 17:59 35.07191 136.98542 11928 ft 335 kts 217°
2026-05-07 17:59 35.05286 136.96914 11473 ft 332 kts 217°
2026-05-07 17:59 35.03418 136.95318 11056 ft 330 kts 217°
2026-05-07 17:59 35.01559 136.93733 10831 ft 319 kts 217°
2026-05-07 18:00 34.99778 136.92216 10723 ft 305 kts 217°
2026-05-07 18:00 34.98071 136.90763 10593 ft 293 kts 218°
2026-05-07 18:00 34.96435 136.89369 10472 ft 281 kts 218°
2026-05-07 18:00 34.94870 136.88037 10359 ft 269 kts 218°
2026-05-07 18:01 34.93359 136.86751 10263 ft 257 kts 218°
2026-05-07 18:01 34.91918 136.85525 10163 ft 248 kts 218°
2026-05-07 18:01 34.90517 136.84331 10075 ft 244 kts 218°
2026-05-07 18:01 34.89129 136.83149 9857 ft 244 kts 218°
2026-05-07 18:02 34.86442 136.80631 9140 ft 243 kts 232°
2026-05-07 18:02 34.85633 136.78864 8815 ft 242 kts 251°
2026-05-07 18:02 34.85239 136.76836 8495 ft 242 kts 256°
2026-05-07 18:03 34.84909 136.74852 8211 ft 242 kts 258°
2026-05-07 18:03 34.84916 136.72743 8009 ft 261 kts 281°
2026-05-07 18:03 34.85765 136.70736 8007 ft 275 kts 307°
2026-05-07 18:03 34.87338 136.69373 7998 ft 287 kts 335°
2026-05-07 18:04 34.89296 136.68794 8018 ft 289 kts 344°
2026-05-07 18:04 34.91258 136.68339 7761 ft 286 kts 344°
2026-05-07 18:04 34.93198 136.67890 7349 ft 280 kts 345°
2026-05-07 18:04 34.95114 136.67656 6974 ft 274 kts 357°
2026-05-07 18:05 34.96988 136.67758 6602 ft 266 kts
2026-05-07 18:05 34.98820 136.67936 6299 ft 262 kts
2026-05-07 18:05 35.00486 136.68765 5835 ft 262 kts 41°
2026-05-07 18:05 35.01433 136.70578 5381 ft 257 kts 79°
2026-05-07 18:06 35.01488 136.72708 4975 ft 248 kts 95°
2026-05-07 18:06 35.01420 136.74799 4573 ft 244 kts 91°
2026-05-07 18:06 35.01245 136.76831 4153 ft 237 kts 117°
2026-05-07 18:06 35.00207 136.78281 3764 ft 225 kts 159°
2026-05-07 18:07 34.98738 136.78574 3528 ft 211 kts 186°
2026-05-07 18:07 34.97286 136.78392 3510 ft 208 kts 187°
2026-05-07 18:07 34.95855 136.78320 3208 ft 207 kts 179°
2026-05-07 18:07 34.94408 136.78490 2718 ft 211 kts 173°
2026-05-07 18:08 34.92878 136.78820 1807 ft 232 kts 168°
2026-05-07 18:08 34.91299 136.79270 1238 ft 230 kts 168°
2026-05-07 18:08 34.89782 136.79616 1003 ft 211 kts 168°
2026-05-07 18:08 34.88392 136.80005 911 ft 205 kts 165°
2026-05-07 18:09 34.86985 136.80378 1411 ft 207 kts 169°
2026-05-07 18:09 34.85621 136.80679 2412 ft 181 kts 171°
2026-05-07 18:09 34.84496 136.80925 3081 ft 159 kts 172°
2026-05-07 18:09 34.83433 136.81162 3649 ft 157 kts 172°
2026-05-07 18:10 34.82330 136.81396 3957 ft 157 kts 176°
2026-05-07 18:10 34.81227 136.81481 4046 ft 163 kts 184°
2026-05-07 18:10 34.80084 136.81356 4634 ft 164 kts 193°
2026-05-07 18:10 34.78985 136.81033 5399 ft 162 kts 201°
2026-05-07 18:11 34.77913 136.80499 6038 ft 174 kts 211°
2026-05-07 18:11 34.77187 136.80005 6429 ft 186 kts 210°
2026-05-07 18:11 34.75365 136.79834 7226 ft 224 kts 159°
2026-05-07 18:11 34.74173 136.81188 7949 ft 251 kts 120°
2026-05-07 18:12 34.73834 136.83313 8863 ft 264 kts 92°
2026-05-07 18:12 34.73733 136.85543 9798 ft 263 kts 112°
2026-05-07 18:12 34.72897 136.87446 10602 ft 251 kts 144°
2026-05-07 18:12 34.71475 136.88538 11430 ft 237 kts 169°
2026-05-07 18:13 34.69919 136.89139 12277 ft 239 kts 171°
2026-05-07 18:13 34.68316 136.89713 13148 ft 241 kts 172°
2026-05-07 18:13 34.66694 136.90259 13987 ft 242 kts 173°
2026-05-07 18:13 34.65062 136.90775 14769 ft 242 kts 174°
2026-05-07 18:14 34.63430 136.91259 15555 ft 241 kts 175°
2026-05-07 18:14 34.61795 136.91867 16096 ft 258 kts 159°
2026-05-07 18:14 34.60382 136.93329 16136 ft 278 kts 132°
2026-05-07 18:14 34.59578 136.95522 15772 ft 295 kts 104°
2026-05-07 18:15 34.59628 136.98052 15319 ft 307 kts 76°
2026-05-07 18:15 34.60309 137.00516 15022 ft 305 kts 78°
2026-05-07 18:15 34.60707 137.03017 14752 ft 300 kts 85°
2026-05-07 18:15 34.60966 137.05529 14451 ft 298 kts 86°
2026-05-07 18:16 34.61194 137.08026 14156 ft 297 kts 87°
2026-05-07 18:16 34.61412 137.10492 13872 ft 295 kts 87°
2026-05-07 18:16 34.61628 137.12973 13574 ft 294 kts 87°
2026-05-07 18:16 34.61842 137.15439 13251 ft 292 kts 86°
2026-05-07 18:17 34.62354 137.17823 12883 ft 294 kts 61°
2026-05-07 18:17 34.63649 137.19701 12534 ft 289 kts 31°
2026-05-07 18:17 34.65435 137.20660 12215 ft 277 kts
2026-05-07 18:17 34.67318 137.20976 11921 ft 271 kts 359°
2026-05-07 18:18 34.69191 137.21151 11539 ft 272 kts 357°
2026-05-07 18:18 34.71131 137.21161 10786 ft 285 kts 350°
2026-05-07 18:18 34.73158 137.20925 10027 ft 301 kts 347°
2026-05-07 18:18 34.75285 137.20604 9221 ft 315 kts 347°
2026-05-07 18:19 34.77499 137.20213 8398 ft 326 kts 344°
2026-05-07 18:19 34.79710 137.19488 7618 ft 333 kts 338°
2026-05-07 18:19 34.81966 137.18582 6837 ft 342 kts 337°
2026-05-07 18:19 34.84254 137.17598 6033 ft 349 kts 337°
2026-05-07 18:20 34.86546 137.16546 5231 ft 353 kts 334°
2026-05-07 18:20 34.88654 137.15019 4585 ft 351 kts 323°
2026-05-07 18:20 34.90625 137.13292 4161 ft 344 kts 322°
2026-05-07 18:20 34.92515 137.11584 3948 ft 332 kts 322°
2026-05-07 18:21 34.94308 137.09947 3756 ft 320 kts 322°
2026-05-07 18:21 34.96062 137.08340 3556 ft 310 kts 322°
2026-05-07 18:21 34.97755 137.06782 3372 ft 300 kts 322°
2026-05-07 18:21 34.99392 137.05270 3183 ft 290 kts 322°
2026-05-07 18:22 35.00938 137.03759 3023 ft 280 kts 316°
2026-05-07 18:22 35.01858 137.02644 3009 ft 270 kts 313°
2026-05-07 18:22 35.03500 137.00504 2998 ft 251 kts 312°
2026-05-07 18:22 35.04651 136.98983 2988 ft 237 kts 311°
2026-05-07 18:23 35.05741 136.97540 2984 ft 224 kts 311°
2026-05-07 18:23 35.06776 136.96183 2989 ft 217 kts 311°
2026-05-07 18:23 35.07809 136.94837 2992 ft 216 kts 311°
2026-05-07 18:23 35.08838 136.93496 2995 ft 216 kts 311°
2026-05-07 18:24 35.09869 136.92153 2998 ft 216 kts 311°
2026-05-07 18:24 35.10901 136.90811 3001 ft 216 kts 310°
2026-05-07 18:24 35.11827 136.89368 2999 ft 215 kts 303°
2026-05-07 18:24 35.12338 136.88336 2984 ft 214 kts 289°